Location: Eschentzwiller
(47.7125°N, 7.3981°E)
Time: 00:58:47
(UTC+00:00)

Cosmos 2263 Rocket - Pass Details

Date: 27 October 2020
Orbit: 822 x 850 km, 71.0° (Epoch: 26 November)

Event Time Altitude Azimuth Distance (km) Brightness Sun altitude
Rises 19:10:44 0° 333° (NNW) 3,421 5.9 -29.1°
Reaches altitude 10° 19:13:12 10° 336° (NNW) 2,484 5.0 -29.6°
Enters shadow 19:17:16 46° 354° (N) 1,130 2.9 -30.2°
